Time,TemperatureF,DewpointF,PressureIn,WindDirection,WindDirectionDegrees,WindSpeedMPH,WindSpeedGustMPH,Humidity,HourlyPrecipIn,Conditions,Clouds,dailyrainin,SoftwareType,DateUTC
2013-03-29 00:01:00,34.9,22.0,29.91,SE,135,0.7,3.1,59,0.00,,,0.00,pywws,2013-03-29 00:01:00,
2013-03-29 00:07:00,34.5,22.5,29.91,NNE,23,0.7,3.1,61,0.00,,,0.00,pywws,2013-03-29 00:07:00,
2013-03-29 00:12:00,34.2,22.5,29.91,South,180,1.6,3.8,62,0.00,,,0.00,pywws,2013-03-29 00:12:00,
2013-03-29 00:18:00,33.8,22.9,29.91,East,90,1.6,6.9,64,0.00,,,0.00,pywws,2013-03-29 00:18:00,
2013-03-29 00:24:00,33.8,23.3,29.91,East,90,0.7,3.8,65,0.00,,,0.00,pywws,2013-03-29 00:24:00,
2013-03-29 00:30:00,33.4,23.0,29.91,South,180,0.0,0.7,65,0.00,,,0.00,pywws,2013-03-29 00:30:00,
2013-03-29 00:36:00,33.1,23.0,29.91,South,180,0.0,0.0,66,0.00,,,0.00,pywws,2013-03-29 00:36:00,
2013-03-29 00:41:00,32.4,21.9,29.91,NW,315,0.0,0.7,65,0.00,,,0.00,pywws,2013-03-29 00:41:00,
2013-03-29 00:47:00,31.6,22.0,29.90,East,90,0.0,0.7,67,0.00,,,0.00,pywws,2013-03-29 00:47:00,
2013-03-29 00:52:00,31.3,22.0,29.90,NW,315,1.6,3.8,68,0.00,,,0.00,pywws,2013-03-29 00:52:00,
2013-03-29 00:58:00,31.3,23.0,29.90,East,90,0.0,1.6,71,0.00,,,0.00,pywws,2013-03-29 00:58:00,
2013-03-29 01:04:00,31.5,23.5,29.90,East,90,0.0,0.7,72,0.00,,,0.00,pywws,2013-03-29 01:04:00,
2013-03-29 01:10:00,31.5,23.5,29.90,West,270,0.0,0.7,72,0.00,,,0.00,pywws,2013-03-29 01:10:00,
2013-03-29 01:16:00,31.3,23.6,29.90,NW,315,0.0,0.7,73,0.00,,,0.00,pywws,2013-03-29 01:16:00,
2013-03-29 01:21:00,31.1,23.5,29.89,NW,315,0.0,1.6,73,0.00,,,0.00,pywws,2013-03-29 01:21:00,
2013-03-29 01:27:00,30.7,23.1,29.89,NW,315,0.0,0.0,73,0.00,,,0.00,pywws,2013-03-29 01:27:00,
2013-03-29 01:32:00,30.4,22.8,29.89,North,0,0.0,0.0,73,0.00,,,0.00,pywws,2013-03-29 01:32:00,
2013-03-29 01:37:00,29.8,22.6,29.90,NE,45,0.0,0.0,74,0.00,,,0.00,pywws,2013-03-29 01:37:00,
2013-03-29 01:43:00,29.1,21.9,29.89,NE,45,0.0,0.0,74,0.00,,,0.00,pywws,2013-03-29 01:43:00,
2013-03-29 01:48:00,28.6,21.7,29.90,NE,45,0.0,0.0,75,0.00,,,0.00,pywws,2013-03-29 01:48:00,
2013-03-29 01:54:00,28.0,21.2,29.89,SW,225,0.0,0.0,75,0.00,,,0.00,pywws,2013-03-29 01:54:00,
2013-03-29 02:00:00,29.5,23.2,29.89,WSW,248,0.0,0.0,77,0.00,,,0.00,pywws,2013-03-29 02:00:00,
2013-03-29 02:06:00,29.3,23.3,29.88,WSW,248,0.0,0.0,78,0.00,,,0.00,pywws,2013-03-29 02:06:00,
2013-03-29 02:11:00,27.7,22.0,29.89,NW,315,0.0,0.0,79,0.00,,,0.00,pywws,2013-03-29 02:11:00,
2013-03-29 02:16:00,27.5,22.2,29.88,NW,315,0.0,0.0,80,0.00,,,0.00,pywws,2013-03-29 02:16:00,
2013-03-29 02:22:00,27.7,22.3,29.88,NW,315,0.0,0.0,80,0.00,,,0.00,pywws,2013-03-29 02:22:00,
2013-03-29 02:28:00,29.3,24.2,29.88,SE,135,0.0,0.0,81,0.00,,,0.00,pywws,2013-03-29 02:28:00,
2013-03-29 02:33:00,27.5,22.4,29.89,SE,135,0.0,0.0,81,0.00,,,0.00,pywws,2013-03-29 02:33:00,
2013-03-29 06:11:00,32.2,26.4,29.87,West,270,0.0,0.0,79,0.00,,,0.00,pywws,2013-03-29 06:11:00,
2013-03-29 06:12:00,32.2,26.7,29.87,West,270,0.0,0.0,80,0.00,,,0.00,pywws,2013-03-29 06:12:00,
2013-03-29 06:13:00,32.2,26.4,29.87,North,0,0.0,0.0,79,0.00,,,0.00,pywws,2013-03-29 06:13:00,
2013-03-29 06:16:00,32.2,26.7,29.87,North,0,0.0,0.0,80,0.00,,,0.00,pywws,2013-03-29 06:16:00,
2013-03-29 06:21:00,32.2,26.7,29.87,West,270,0.0,0.0,80,0.00,,,0.00,pywws,2013-03-29 06:21:00,
2013-03-29 06:26:00,32.2,26.7,29.87,NW,315,0.0,0.7,80,0.00,,,0.00,pywws,2013-03-29 06:26:00,
2013-03-29 06:32:00,32.4,26.9,29.87,North,0,0.0,0.7,80,0.00,,,0.00,pywws,2013-03-29 06:32:00,
2013-03-29 06:37:00,32.4,26.9,29.87,NW,315,0.0,0.0,80,0.00,,,0.00,pywws,2013-03-29 06:37:00,
2013-03-29 06:43:00,32.5,27.4,29.87,NE,45,0.0,1.6,81,0.00,,,0.00,pywws,2013-03-29 06:43:00,
2013-03-29 06:49:00,32.9,27.7,29.87,South,180,0.7,1.6,81,0.00,,,0.00,pywws,2013-03-29 06:49:00,
2013-03-29 06:54:00,33.3,28.1,29.87,NW,315,0.0,1.6,81,0.00,,,0.00,pywws,2013-03-29 06:54:00,
2013-03-29 07:00:00,33.6,28.1,29.87,South,180,0.0,1.6,80,0.00,,,0.00,pywws,2013-03-29 07:00:00,
2013-03-29 07:04:00,34.0,28.5,29.87,North,0,0.7,3.1,80,0.00,,,0.00,pywws,2013-03-29 07:04:00,
2013-03-29 07:05:00,34.0,28.5,29.87,South,180,0.7,3.8,80,0.00,,,0.00,pywws,2013-03-29 07:05:00,
2013-03-29 07:09:00,34.0,28.5,29.86,NW,315,0.7,3.1,80,0.00,,,0.00,pywws,2013-03-29 07:09:00,
2013-03-29 07:11:00,34.2,28.6,29.87,NE,45,1.6,5.4,80,0.00,,,0.00,pywws,2013-03-29 07:11:00,
2013-03-29 07:14:00,34.2,28.3,29.87,South,180,0.7,2.2,79,0.00,,,0.00,pywws,2013-03-29 07:14:00,
2013-03-29 07:16:00,34.2,28.6,29.86,SE,135,0.0,2.2,80,0.00,,,0.00,pywws,2013-03-29 07:16:00,
2013-03-29 07:19:00,34.3,28.5,29.86,SW,225,0.7,2.2,79,0.00,,,0.00,pywws,2013-03-29 07:19:00,
2013-03-29 07:21:00,34.5,28.7,29.86,NE,45,0.7,2.2,79,0.00,,,0.00,pywws,2013-03-29 07:21:00,
2013-03-29 07:24:00,34.5,28.7,29.86,South,180,0.7,1.6,79,0.00,,,0.00,pywws,2013-03-29 07:24:00,
2013-03-29 07:27:00,34.7,28.6,29.86,West,270,1.6,3.8,78,0.00,,,0.00,pywws,2013-03-29 07:27:00,
2013-03-29 07:34:00,34.9,28.7,29.86,SE,135,3.1,6.9,78,0.00,,,0.00,pywws,2013-03-29 07:34:00,
2013-03-29 07:40:00,35.8,29.0,29.86,NE,45,0.7,3.1,76,0.00,,,0.00,pywws,2013-03-29 07:40:00,
2013-03-29 07:45:00,36.1,28.7,29.86,NNE,23,2.2,5.4,74,0.00,,,0.00,pywws,2013-03-29 07:45:00,
2013-03-29 07:51:00,38.5,29.6,29.86,ENE,68,2.2,5.4,70,0.00,,,0.00,pywws,2013-03-29 07:51:00,
2013-03-29 07:57:00,41.4,30.1,29.85,NE,45,3.8,6.9,64,0.00,,,0.00,pywws,2013-03-29 07:57:00,
2013-03-29 08:02:00,42.6,29.7,29.85,SW,225,3.1,6.0,60,0.00,,,0.00,pywws,2013-03-29 08:02:00,
2013-03-29 08:08:00,43.5,28.9,29.85,NW,315,3.1,6.0,56,0.00,,,0.00,pywws,2013-03-29 08:08:00,
2013-03-29 08:13:00,44.4,29.3,29.84,East,90,0.7,2.2,55,0.00,,,0.00,pywws,2013-03-29 08:13:00,
2013-03-29 08:19:00,45.1,29.5,29.85,NW,315,2.2,6.0,54,0.00,,,0.00,pywws,2013-03-29 08:19:00,
2013-03-29 08:25:00,45.0,27.5,29.84,North,0,3.1,7.6,50,0.00,,,0.00,pywws,2013-03-29 08:25:00,
2013-03-29 08:30:00,46.2,29.6,29.84,East,90,0.0,1.6,52,0.00,,,0.00,pywws,2013-03-29 08:30:00,
2013-03-29 08:36:00,47.5,26.7,29.84,NE,45,2.2,4.5,44,0.00,,,0.00,pywws,2013-03-29 08:36:00,
2013-03-29 08:41:00,46.2,25.5,29.84,NW,315,0.7,2.2,44,0.00,,,0.00,pywws,2013-03-29 08:41:00,
2013-03-29 08:47:00,46.0,25.9,29.85,SW,225,2.2,3.8,45,0.00,,,0.00,pywws,2013-03-29 08:47:00,
2013-03-29 08:53:00,45.3,26.8,29.84,North,0,0.7,2.2,48,0.00,,,0.00,pywws,2013-03-29 08:53:00,
2013-03-29 08:58:00,46.8,26.0,29.84,ENE,68,1.6,3.8,44,0.00,,,0.00,pywws,2013-03-29 08:58:00,
2013-03-29 09:04:00,46.0,25.4,29.84,North,0,5.4,8.3,44,0.00,,,0.00,pywws,2013-03-29 09:04:00,
2013-03-29 09:09:00,44.8,25.3,29.84,NE,45,2.2,7.6,46,0.00,,,0.00,pywws,2013-03-29 09:09:00,
2013-03-29 09:15:00,44.4,26.5,29.84,North,0,0.7,2.2,49,0.00,,,0.00,pywws,2013-03-29 09:15:00,
2013-03-29 09:21:00,46.2,26.6,29.84,East,90,4.5,10.7,46,0.00,,,0.00,pywws,2013-03-29 09:21:00,
2013-03-29 09:26:00,46.2,26.1,29.84,North,0,1.6,4.5,45,0.00,,,0.00,pywws,2013-03-29 09:26:00,
2013-03-29 09:32:00,46.6,28.0,29.84,NE,45,0.7,3.1,48,0.00,,,0.00,pywws,2013-03-29 09:32:00,
2013-03-29 09:37:00,45.1,24.5,29.84,East,90,3.1,6.9,44,0.00,,,0.00,pywws,2013-03-29 09:37:00,
2013-03-29 09:43:00,44.4,25.5,29.83,SSE,158,3.1,5.4,47,0.00,,,0.00,pywws,2013-03-29 09:43:00,
2013-03-29 09:49:00,48.2,26.2,29.83,NW,315,3.1,6.0,42,0.00,,,0.00,pywws,2013-03-29 09:49:00,
2013-03-29 09:54:00,48.7,23.6,29.83,SE,135,5.4,12.1,37,0.00,,,0.00,pywws,2013-03-29 09:54:00,
2013-03-29 10:00:00,45.1,24.5,29.84,NW,315,3.1,6.0,44,0.00,,,0.00,pywws,2013-03-29 10:00:00,
2013-03-29 10:05:00,44.8,24.8,29.83,SE,135,1.6,4.5,45,0.00,,,0.00,pywws,2013-03-29 10:05:00,
2013-03-29 10:11:00,44.1,25.1,29.83,SE,135,2.2,6.0,47,0.00,,,0.00,pywws,2013-03-29 10:11:00,
2013-03-29 10:16:00,45.5,25.4,29.83,NE,45,2.2,4.5,45,0.00,,,0.00,pywws,2013-03-29 10:16:00,
2013-03-29 10:21:00,45.3,25.2,29.83,SE,135,2.2,5.4,45,0.00,,,0.00,pywws,2013-03-29 10:21:00,
2013-03-29 10:27:00,45.1,25.1,29.83,SE,135,2.2,5.4,45,0.00,,,0.00,pywws,2013-03-29 10:27:00,
2013-03-29 10:33:00,43.7,23.8,29.83,NE,45,4.5,7.6,45,0.00,,,0.00,pywws,2013-03-29 10:33:00,
2013-03-29 10:38:00,42.6,23.8,29.83,NW,315,1.6,3.8,47,0.00,,,0.00,pywws,2013-03-29 10:38:00,
2013-03-29 10:44:00,42.1,23.8,29.83,SE,135,2.2,3.8,48,0.00,,,0.00,pywws,2013-03-29 10:44:00,
2013-03-29 10:50:00,42.1,22.8,29.83,South,180,4.5,10.7,46,0.00,,,0.00,pywws,2013-03-29 10:50:00,
2013-03-29 10:56:00,42.1,23.3,29.83,NE,45,2.2,6.9,47,0.00,,,0.00,pywws,2013-03-29 10:56:00,
2013-03-29 11:02:00,42.3,23.0,29.83,NW,315,1.6,3.8,46,0.00,,,0.00,pywws,2013-03-29 11:02:00,
2013-03-29 11:07:00,42.4,23.7,29.83,SE,135,2.2,5.4,47,0.00,,,0.00,pywws,2013-03-29 11:07:00,
2013-03-29 11:13:00,43.3,24.0,29.83,East,90,0.7,2.2,46,0.00,,,0.00,pywws,2013-03-29 11:13:00,
2013-03-29 11:18:00,44.4,23.3,29.82,East,90,3.1,6.9,43,0.00,,,0.00,pywws,2013-03-29 11:18:00,
2013-03-29 11:24:00,44.1,21.9,29.82,SE,135,4.5,6.9,41,0.00,,,0.00,pywws,2013-03-29 11:24:00,
2013-03-29 11:30:00,44.6,24.6,29.82,SE,135,3.8,8.3,45,0.00,,,0.00,pywws,2013-03-29 11:30:00,
2013-03-29 11:35:00,46.8,23.7,29.82,South,180,3.1,6.9,40,0.00,,,0.00,pywws,2013-03-29 11:35:00,
2013-03-29 11:41:00,45.5,22.6,29.82,East,90,0.7,3.8,40,0.00,,,0.00,pywws,2013-03-29 11:41:00,
2013-03-29 11:46:00,44.6,22.4,29.82,SE,135,3.8,9.2,41,0.00,,,0.00,pywws,2013-03-29 11:46:00,
2013-03-29 11:52:00,43.7,23.2,29.82,NE,45,2.2,5.4,44,0.00,,,0.00,pywws,2013-03-29 11:52:00,
2013-03-29 11:57:00,43.5,22.0,29.82,North,0,3.1,5.4,42,0.00,,,0.00,pywws,2013-03-29 11:57:00,
2013-03-29 12:03:00,43.2,22.7,29.82,SE,135,2.2,4.5,44,0.00,,,0.00,pywws,2013-03-29 12:03:00,
2013-03-29 12:09:00,43.2,22.7,29.81,SE,135,1.6,3.1,44,0.00,,,0.00,pywws,2013-03-29 12:09:00,
2013-03-29 12:14:00,43.3,23.4,29.82,East,90,1.6,3.8,45,0.00,,,0.00,pywws,2013-03-29 12:14:00,
2013-03-29 12:20:00,43.0,22.6,29.82,SE,135,3.1,7.6,44,0.00,,,0.00,pywws,2013-03-29 12:20:00,
2013-03-29 12:25:00,42.6,22.3,29.82,East,90,2.2,6.9,44,0.00,,,0.00,pywws,2013-03-29 12:25:00,
2013-03-29 12:31:00,42.8,22.9,29.82,North,0,3.1,6.9,45,0.00,,,0.00,pywws,2013-03-29 12:31:00,
2013-03-29 12:37:00,42.8,22.9,29.81,East,90,3.1,6.9,45,0.00,,,0.00,pywws,2013-03-29 12:37:00,
2013-03-29 12:42:00,42.4,23.7,29.82,SE,135,4.5,9.8,47,0.00,,,0.00,pywws,2013-03-29 12:42:00,
2013-03-29 12:47:00,42.4,24.6,29.81,SW,225,1.6,5.4,49,0.00,,,0.00,pywws,2013-03-29 12:47:00,
2013-03-29 12:53:00,43.0,25.1,29.82,South,180,3.1,6.9,49,0.00,,,0.00,pywws,2013-03-29 12:53:00,
2013-03-29 12:58:00,43.0,23.1,29.81,West,270,2.2,5.4,45,0.00,,,0.00,pywws,2013-03-29 12:58:00,
2013-03-29 13:03:00,42.8,23.5,29.81,NE,45,3.8,6.9,46,0.00,,,0.00,pywws,2013-03-29 13:03:00,
2013-03-29 13:09:00,42.6,23.3,29.81,NE,45,5.4,8.3,46,0.00,,,0.00,pywws,2013-03-29 13:09:00,
2013-03-29 13:14:00,42.4,23.1,29.81,South,180,3.1,5.4,46,0.00,,,0.00,pywws,2013-03-29 13:14:00,
2013-03-29 13:20:00,42.8,23.5,29.81,NE,45,2.2,4.5,46,0.00,,,0.00,pywws,2013-03-29 13:20:00,
2013-03-29 13:25:00,43.2,23.8,29.80,SE,135,3.1,6.0,46,0.00,,,0.00,pywws,2013-03-29 13:25:00,
2013-03-29 13:31:00,43.3,25.0,29.80,SE,135,2.2,4.5,48,0.00,,,0.00,pywws,2013-03-29 13:31:00,
2013-03-29 13:37:00,42.8,25.9,29.81,SE,135,4.5,9.2,51,0.00,,,0.00,pywws,2013-03-29 13:37:00,
2013-03-29 13:42:00,42.6,26.2,29.80,East,90,0.7,3.8,52,0.00,,,0.00,pywws,2013-03-29 13:42:00,
2013-03-29 13:48:00,42.6,26.2,29.80,SE,135,4.5,8.3,52,0.00,,,0.00,pywws,2013-03-29 13:48:00,
2013-03-29 13:53:00,42.4,26.1,29.80,SE,135,3.8,6.9,52,0.00,,,0.00,pywws,2013-03-29 13:53:00,
2013-03-29 13:58:00,43.9,27.9,29.80,SE,135,2.2,6.0,53,0.00,,,0.00,pywws,2013-03-29 13:58:00,
2013-03-29 14:04:00,47.3,27.6,29.80,SE,135,2.2,6.0,46,0.00,,,0.00,pywws,2013-03-29 14:04:00,
2013-03-29 14:09:00,46.2,26.6,29.80,East,90,1.6,4.5,46,0.00,,,0.00,pywws,2013-03-29 14:09:00,
2013-03-29 14:15:00,44.8,25.3,29.80,NNE,23,3.1,7.6,46,0.00,,,0.00,pywws,2013-03-29 14:15:00,
2013-03-29 14:21:00,44.1,25.6,29.80,East,90,0.7,1.6,48,0.00,,,0.00,pywws,2013-03-29 14:21:00,
2013-03-29 14:26:00,44.4,26.0,29.80,South,180,3.1,6.9,48,0.00,,,0.00,pywws,2013-03-29 14:26:00,
2013-03-29 14:32:00,44.4,24.4,29.80,SE,135,2.2,4.5,45,0.00,,,0.00,pywws,2013-03-29 14:32:00,
2013-03-29 14:37:00,45.7,25.0,29.80,SE,135,4.5,7.6,44,0.00,,,0.00,pywws,2013-03-29 14:37:00,
2013-03-29 14:43:00,45.3,24.7,29.79,ESE,113,3.8,6.0,44,0.00,,,0.00,pywws,2013-03-29 14:43:00,
2013-03-29 14:49:00,44.4,24.4,29.79,North,0,2.2,6.0,45,0.00,,,0.00,pywws,2013-03-29 14:49:00,
2013-03-29 14:54:00,43.7,24.8,29.79,NE,45,2.2,6.0,47,0.00,,,0.00,pywws,2013-03-29 14:54:00,
2013-03-29 15:00:00,43.3,24.5,29.79,NE,45,2.2,6.0,47,0.00,,,0.00,pywws,2013-03-29 15:00:00,
2013-03-29 15:05:00,43.0,24.1,29.79,North,0,1.6,3.8,47,0.00,,,0.00,pywws,2013-03-29 15:05:00,
2013-03-29 15:11:00,42.3,25.0,29.79,SE,135,3.8,8.3,50,0.00,,,0.00,pywws,2013-03-29 15:11:00,
2013-03-29 15:16:00,41.7,25.4,29.79,North,0,3.1,8.3,52,0.00,,,0.00,pywws,2013-03-29 15:16:00,
2013-03-29 15:21:00,41.4,25.5,29.78,South,180,3.1,5.4,53,0.00,,,0.00,pywws,2013-03-29 15:21:00,
2013-03-29 15:27:00,41.4,25.1,29.78,NE,45,3.1,7.6,52,0.00,,,0.00,pywws,2013-03-29 15:27:00,
2013-03-29 15:33:00,41.7,24.9,29.78,East,90,3.1,8.3,51,0.00,,,0.00,pywws,2013-03-29 15:33:00,
2013-03-29 15:38:00,42.1,25.3,29.78,East,90,3.8,7.6,51,0.00,,,0.00,pywws,2013-03-29 15:38:00,
2013-03-29 15:44:00,42.3,25.4,29.78,East,90,1.6,5.4,51,0.00,,,0.00,pywws,2013-03-29 15:44:00,
2013-03-29 15:49:00,43.9,25.0,29.78,South,180,3.1,6.0,47,0.00,,,0.00,pywws,2013-03-29 15:49:00,
2013-03-29 15:55:00,43.9,25.5,29.78,NE,45,2.2,8.3,48,0.00,,,0.00,pywws,2013-03-29 15:55:00,
2013-03-29 16:00:00,43.5,24.1,29.78,NE,45,2.2,6.0,46,0.00,,,0.00,pywws,2013-03-29 16:00:00,
2013-03-29 16:06:00,43.3,25.5,29.78,SE,135,1.6,4.5,49,0.00,,,0.00,pywws,2013-03-29 16:06:00,
2013-03-29 16:12:00,43.0,24.1,29.78,North,0,1.6,6.0,47,0.00,,,0.00,pywws,2013-03-29 16:12:00,
2013-03-29 16:17:00,42.3,24.5,29.77,SW,225,2.2,5.4,49,0.00,,,0.00,pywws,2013-03-29 16:17:00,
2013-03-29 16:23:00,41.5,25.2,29.78,SE,135,3.1,8.3,52,0.00,,,0.00,pywws,2013-03-29 16:23:00,
2013-03-29 16:29:00,40.8,25.5,29.78,ENE,68,3.1,7.6,54,0.00,,,0.00,pywws,2013-03-29 16:29:00,
2013-03-29 16:34:00,40.5,26.0,29.78,NE,45,3.1,6.0,56,0.00,,,0.00,pywws,2013-03-29 16:34:00,
2013-03-29 16:40:00,40.3,25.8,29.78,West,270,1.6,6.0,56,0.00,,,0.00,pywws,2013-03-29 16:40:00,
2013-03-29 16:45:00,40.3,26.3,29.78,NE,45,0.7,4.5,57,0.00,,,0.00,pywws,2013-03-29 16:45:00,
2013-03-29 16:51:00,40.5,26.4,29.78,East,90,3.1,6.9,57,0.00,,,0.00,pywws,2013-03-29 16:51:00,
2013-03-29 16:57:00,40.3,26.3,29.78,North,0,1.6,6.0,57,0.00,,,0.00,pywws,2013-03-29 16:57:00,
2013-03-29 17:02:00,40.3,26.3,29.78,SW,225,2.2,6.9,57,0.00,,,0.00,pywws,2013-03-29 17:02:00,
2013-03-29 17:08:00,39.9,25.9,29.78,SE,135,3.1,6.9,57,0.00,,,0.00,pywws,2013-03-29 17:08:00,
2013-03-29 17:13:00,39.7,26.2,29.78,NW,315,3.8,8.3,58,0.00,,,0.00,pywws,2013-03-29 17:13:00,
2013-03-29 17:18:00,39.6,25.6,29.78,South,180,4.5,8.3,57,0.00,,,0.00,pywws,2013-03-29 17:18:00,
2013-03-29 17:24:00,39.4,25.8,29.78,SSE,158,1.6,3.8,58,0.00,,,0.00,pywws,2013-03-29 17:24:00,
2013-03-29 17:30:00,39.4,25.8,29.78,WNW,293,3.8,8.3,58,0.00,,,0.00,pywws,2013-03-29 17:30:00,
2013-03-29 17:35:00,39.2,26.1,29.78,SE,135,2.2,4.5,59,0.00,,,0.00,pywws,2013-03-29 17:35:00,
2013-03-29 17:41:00,39.0,26.3,29.78,NE,45,2.2,4.5,60,0.00,,,0.00,pywws,2013-03-29 17:41:00,
2013-03-29 17:46:00,38.7,26.4,29.78,North,0,0.7,3.1,61,0.00,,,0.00,pywws,2013-03-29 17:46:00,
2013-03-29 17:52:00,38.7,26.8,29.78,SE,135,3.1,6.0,62,0.00,,,0.00,pywws,2013-03-29 17:52:00,
2013-03-29 17:57:00,38.7,26.8,29.79,East,90,1.6,3.8,62,0.00,,,0.00,pywws,2013-03-29 17:57:00,
2013-03-29 18:03:00,38.5,26.6,29.78,SW,225,2.2,6.9,62,0.00,,,0.00,pywws,2013-03-29 18:03:00,
2013-03-29 18:09:00,38.3,26.8,29.79,SE,135,1.6,6.0,63,0.00,,,0.00,pywws,2013-03-29 18:09:00,
2013-03-29 18:14:00,38.1,27.0,29.79,SE,135,1.6,5.4,64,0.00,,,0.00,pywws,2013-03-29 18:14:00,
2013-03-29 18:20:00,37.9,27.2,29.79,NW,315,2.2,5.4,65,0.00,,,0.00,pywws,2013-03-29 18:20:00,
2013-03-29 18:25:00,37.9,27.2,29.79,East,90,1.6,5.4,65,0.00,,,0.00,pywws,2013-03-29 18:25:00,
2013-03-29 18:31:00,37.8,27.1,29.79,ENE,68,2.2,6.0,65,0.00,,,0.00,pywws,2013-03-29 18:31:00,
2013-03-29 18:37:00,37.8,27.1,29.79,East,90,2.2,5.4,65,0.00,,,0.00,pywws,2013-03-29 18:37:00,
2013-03-29 18:42:00,37.8,27.1,29.79,SE,135,1.6,6.0,65,0.00,,,0.00,pywws,2013-03-29 18:42:00,
2013-03-29 18:48:00,37.6,27.3,29.79,NE,45,2.2,5.4,66,0.00,,,0.00,pywws,2013-03-29 18:48:00,
2013-03-29 18:53:00,37.6,26.9,29.79,NE,45,3.8,6.9,65,0.00,,,0.00,pywws,2013-03-29 18:53:00,
2013-03-29 18:59:00,37.4,26.4,29.79,ENE,68,3.1,8.3,64,0.00,,,0.00,pywws,2013-03-29 18:59:00,
2013-03-29 19:05:00,37.2,25.8,29.79,NE,45,2.2,6.0,63,0.00,,,0.00,pywws,2013-03-29 19:05:00,
2013-03-29 19:10:00,36.7,25.3,29.79,NW,315,3.8,7.6,63,0.00,,,0.00,pywws,2013-03-29 19:10:00,
2013-03-29 19:16:00,36.3,24.9,29.79,NE,45,2.2,6.0,63,0.00,,,0.00,pywws,2013-03-29 19:16:00,
2013-03-29 19:21:00,36.0,25.0,29.79,NE,45,2.2,5.4,64,0.00,,,0.00,pywws,2013-03-29 19:21:00,
2013-03-29 19:27:00,35.8,25.2,29.79,East,90,2.2,5.4,65,0.00,,,0.00,pywws,2013-03-29 19:27:00,
2013-03-29 19:33:00,35.6,25.4,29.79,ENE,68,2.2,5.4,66,0.00,,,0.00,pywws,2013-03-29 19:33:00,
2013-03-29 19:38:00,35.2,25.4,29.79,NW,315,0.7,2.2,67,0.00,,,0.00,pywws,2013-03-29 19:38:00,
2013-03-29 19:44:00,35.2,25.8,29.79,East,90,0.0,1.6,68,0.00,,,0.00,pywws,2013-03-29 19:44:00,
2013-03-29 19:49:00,34.9,25.4,29.79,NE,45,0.0,1.6,68,0.00,,,0.00,pywws,2013-03-29 19:49:00,
2013-03-29 19:55:00,34.7,25.6,29.79,NE,45,1.6,3.8,69,0.00,,,0.00,pywws,2013-03-29 19:55:00,
2013-03-29 20:00:00,34.5,25.8,29.79,East,90,0.7,3.1,70,0.00,,,0.00,pywws,2013-03-29 20:00:00,
2013-03-29 20:05:00,34.3,25.6,29.79,NE,45,0.0,1.6,70,0.00,,,0.00,pywws,2013-03-29 20:05:00,
2013-03-29 20:11:00,34.2,25.4,29.80,SW,225,0.0,0.0,70,0.00,,,0.00,pywws,2013-03-29 20:11:00,
2013-03-29 20:17:00,33.8,25.4,29.79,East,90,0.0,0.7,71,0.00,,,0.00,pywws,2013-03-29 20:17:00,
2013-03-29 20:22:00,33.6,25.6,29.80,SE,135,0.0,0.0,72,0.00,,,0.00,pywws,2013-03-29 20:22:00,
2013-03-29 20:27:00,33.4,25.4,29.80,South,180,0.7,2.2,72,0.00,,,0.00,pywws,2013-03-29 20:27:00,
2013-03-29 20:33:00,33.6,26.2,29.79,East,90,2.2,5.4,74,0.00,,,0.00,pywws,2013-03-29 20:33:00,
2013-03-29 20:39:00,34.3,26.9,29.80,NE,45,0.0,1.6,74,0.00,,,0.00,pywws,2013-03-29 20:39:00,
2013-03-29 20:45:00,34.9,27.1,29.79,SE,135,3.1,6.9,73,0.00,,,0.00,pywws,2013-03-29 20:45:00,
2013-03-29 20:50:00,35.1,27.0,29.80,NE,45,1.6,4.5,72,0.00,,,0.00,pywws,2013-03-29 20:50:00,
2013-03-29 20:55:00,35.4,27.3,29.80,East,90,0.7,4.5,72,0.00,,,0.00,pywws,2013-03-29 20:55:00,
2013-03-29 21:00:00,35.4,27.3,29.80,East,90,0.7,4.5,72,0.00,,,0.00,pywws,2013-03-29 21:00:00,
2013-03-29 21:05:00,35.4,27.3,29.80,NE,45,2.2,3.8,72,0.00,,,0.00,pywws,2013-03-29 21:05:00,
2013-03-29 21:11:00,35.6,27.5,29.80,SE,135,0.7,3.8,72,0.00,,,0.00,pywws,2013-03-29 21:11:00,
2013-03-29 21:16:00,35.6,27.5,29.80,NE,45,1.6,4.5,72,0.00,,,0.00,pywws,2013-03-29 21:16:00,
2013-03-29 21:21:00,35.8,27.3,29.80,NE,45,3.1,6.0,71,0.00,,,0.00,pywws,2013-03-29 21:21:00,
2013-03-29 21:27:00,35.6,26.8,29.80,ENE,68,0.0,1.6,70,0.00,,,0.00,pywws,2013-03-29 21:27:00,
2013-03-29 21:33:00,35.2,26.5,29.80,NW,315,0.7,2.2,70,0.00,,,0.00,pywws,2013-03-29 21:33:00,
2013-03-29 21:38:00,34.9,26.4,29.80,NE,45,5.4,9.8,71,0.00,,,0.00,pywws,2013-03-29 21:38:00,
2013-03-29 21:44:00,34.7,26.3,29.80,South,180,2.2,5.4,71,0.00,,,0.00,pywws,2013-03-29 21:44:00,
2013-03-29 21:49:00,34.5,26.4,29.80,NW,315,0.0,3.8,72,0.00,,,0.00,pywws,2013-03-29 21:49:00,
2013-03-29 21:55:00,34.2,26.1,29.80,SE,135,0.7,3.8,72,0.00,,,0.00,pywws,2013-03-29 21:55:00,
2013-03-29 22:00:00,34.2,26.1,29.80,SE,135,0.7,2.2,72,0.00,,,0.00,pywws,2013-03-29 22:00:00,
2013-03-29 22:05:00,34.0,26.3,29.80,NE,45,0.7,3.1,73,0.00,,,0.00,pywws,2013-03-29 22:05:00,
2013-03-29 22:11:00,33.8,26.4,29.80,South,180,0.0,2.2,74,0.00,,,0.00,pywws,2013-03-29 22:11:00,
2013-03-29 22:16:00,34.0,26.6,29.80,North,0,0.7,2.2,74,0.00,,,0.00,pywws,2013-03-29 22:16:00,
2013-03-29 22:21:00,34.2,26.8,29.79,South,180,0.0,1.6,74,0.00,,,0.00,pywws,2013-03-29 22:21:00,
2013-03-29 22:26:00,34.3,27.3,29.80,East,90,1.6,3.8,75,0.00,,,0.00,pywws,2013-03-29 22:26:00,
2013-03-29 22:32:00,34.5,27.1,29.79,North,0,2.2,3.8,74,0.00,,,0.00,pywws,2013-03-29 22:32:00,
2013-03-29 22:37:00,34.7,27.3,29.79,NE,45,0.0,3.1,74,0.00,,,0.00,pywws,2013-03-29 22:37:00,
2013-03-29 22:43:00,34.7,27.3,29.80,SE,135,0.0,0.7,74,0.00,,,0.00,pywws,2013-03-29 22:43:00,
2013-03-29 22:49:00,34.7,27.3,29.80,West,270,0.0,0.7,74,0.00,,,0.00,pywws,2013-03-29 22:49:00,
2013-03-29 22:54:00,34.7,27.3,29.80,ENE,68,0.7,3.1,74,0.00,,,0.00,pywws,2013-03-29 22:54:00,
2013-03-29 23:00:00,34.9,27.4,29.79,North,0,1.6,3.8,74,0.00,,,0.00,pywws,2013-03-29 23:00:00,
2013-03-29 23:05:00,34.9,27.4,29.79,South,180,0.0,1.6,74,0.00,,,0.00,pywws,2013-03-29 23:05:00,
2013-03-29 23:11:00,34.9,27.4,29.79,SE,135,2.2,4.5,74,0.00,,,0.00,pywws,2013-03-29 23:11:00,
2013-03-29 23:16:00,34.9,27.8,29.79,NE,45,0.7,6.9,75,0.00,,,0.00,pywws,2013-03-29 23:16:00,
2013-03-29 23:22:00,34.9,27.8,29.79,West,270,2.2,6.9,75,0.00,,,0.00,pywws,2013-03-29 23:22:00,
2013-03-29 23:27:00,34.7,27.6,29.79,ENE,68,1.6,4.5,75,0.00,,,0.00,pywws,2013-03-29 23:27:00,
2013-03-29 23:33:00,34.5,27.7,29.79,NE,45,0.7,1.6,76,0.00,,,0.00,pywws,2013-03-29 23:33:00,
2013-03-29 23:38:00,34.3,27.6,29.79,SSE,158,2.2,4.5,76,0.00,,,0.00,pywws,2013-03-29 23:38:00,
2013-03-29 23:44:00,34.2,27.7,29.79,South,180,1.6,3.1,77,0.00,,,0.00,pywws,2013-03-29 23:44:00,
2013-03-29 23:49:00,34.0,27.5,29.78,SE,135,1.6,5.4,77,0.00,,,0.00,pywws,2013-03-29 23:49:00,
2013-03-29 23:55:00,34.0,27.9,29.78,ENE,68,2.2,3.8,78,0.00,,,0.00,pywws,2013-03-29 23:55:00,